Location: Launay
(47.2429°N, 1.5727°E)
Time: 22:02:51
(UTC+00:00)

Spot 4 - Pass Details

Date: 19 May 2025
Orbit: 699 x 715 km, 98.3° (Epoch: 12 June)

Event Time Altitude Azimuth Distance (km) Brightness Sun altitude
Exits shadow 22:56:46 53° 141° (SE) 862 3.9 -21.7°
Maximum altitude 22:57:49 74° 74° (ENE) 733 3.8 -21.7°
Drops below altitude 10° 23:02:35 10° 349° (N) 2,184 7.5 -21.9°
Sets 23:04:52 0° 348° (NNW) 3,109 8.7 -22.0°
